Regional Weather Roundup
Issued by NWS Midland/Odessa, TX

Skip options and go directly to product.
Home | Oldest Version | Previous Version | Current Version | All | Text Only | Save Text | Print | Product List | Glossary On

Skip product version selection by date and time.   
143
ASUS44 KMAF 310410
RWRMAF
MIDLAND AREA WEATHER ROUNDUP
NATIONAL WEATHER SERVICE MIDLAND TX
1100 PM CDT SAT AUG 30 2014

...IN SOUTHWEST TEXAS AND SOUTHEAST NEW MEXICO...

CITY           SKY/WX    TMP DP  RH WIND       PRES   REMARKS
ALPINE         CLEAR     79  54  42 SE7       30.15R
ANDREWS        FAIR      81  52  36 SE12      30.02S
ARTESIA        NOT AVBL
BIG SPRING     CLEAR     82  60  47 SE8       30.02R
CARLSBAD       CLEAR     81  39  22 S9        29.97R
DRYDEN           N/A     87  64  46 E12       29.96R
FORT STOCKTON  CLEAR     82  62  50 SE13      30.00R
GUAD PASS      CLEAR     75  33  21 E16       30.16R
HOBBS          CLEAR     79  41  25 SE9       30.04R
MARFA          CLEAR     72  50  46 NE7       30.13S
MIDLAND AIRPK  NOT AVBL
MIDLAND INTL   CLEAR     83  64  52 SE15      30.00R
ODESSA         CLEAR     84  61  45 SE14      30.01R
PECOS          CLEAR     84  59  43 E12       29.96R
PRESIDIO       FAIR      91  51  25 NE12      29.93R
SEMINOLE       CLEAR     79  46  31 SE9       30.03R
SNYDER         CLEAR     82  59  45 SE9       30.00S
WINK           CLEAR     87  60  40 SE15      29.96R
$$
...OTHER STATIONS IN TEXAS...

CITY           SKY/WX    TMP DP  RH WIND       PRES   REMARKS
ABILENE        CLEAR     84  66  54 S13       29.98R
AMARILLO       MOCLDY    78  53  41 SE10      30.01R
AUSTIN         PTCLDY    82  73  74 S10       29.95R
BROWNSVILLE    PTCLDY    81  79  94 E6        29.93R
CORPUS CHRISTI CLOUDY    79  76  90 SE7       29.94R
DALLAS FTW     PTCLDY    84  69  60 S9        29.93S
DEL RIO        PTCLDY    91  65  41 SE13      29.90R
EL PASO        CLEAR     84  46  26 S5        30.00R
HOUSTON INT    MOCLDY    79  73  83 S3        29.98R
LUBBOCK        CLEAR     78  52  40 SE14      30.01R
SAN ANGELO     CLEAR     80  66  62 S5        29.98R
SAN ANTONIO    MOCLDY    83  70  64 S13       29.97R
WACO           CLEAR     80  69  69 E3        29.94S
WICHITA FALLS  NOT AVBL
$$
...OTHER LOCATIONS IN NEW MEXICO...

CITY           SKY/WX    TMP DP  RH WIND       PRES   REMARKS
ALAMAGORDO     CLEAR     73  43  33 SE8       30.02R
ALBUQUERQUE    PTCLDY    75  45  34 SE7       30.05R
CANNON AFB     PTCLDY    78  48  34 S15       30.03R
CLOVIS           N/A     77  46  33 S15       30.06R
HOLLOMAN AFB   CLEAR     79  44  29 SE8       29.99R
ROSWELL        PTCLDY    80  43  26 SE8       29.98R
RUIDOSO        CLEAR     64  41  42 SE5       30.24R
SANTA FE       PTCLDY    69  42  37 CALM      30.12R
TRUTH OR CONSE CLEAR     80  40  23 W7        30.03R
TUCUMCARI      PTCLDY    82  43  25 S16       29.95R
$$

USA.gov is the U.S. government's official web portal to all federal, state and local government web resources and services.